Flag for Philippines Weather past 2 weeks in Mabalacat, Philippines

Now
86 °F

Partly sunny.


Feels Like: 97 °F
Forecast: 78 / 91 °F
Wind: 2 mph from Southeast

Location: Clarkfield Pampanga International Airport

Current Time: Jul 2, 2015 at 9:27:26 AM

Latest Report: Jul 2, 2015 at 9:00 AM


Visibility: N/A

Pressure: 29.77 "Hg

Humidity: 75%

Dew point: 77 °F

Location of MabalacatLocation

Historic Weather in Mabalacat — Graph

°F

Mabalacat temperature yesterday

Maximum temperature yesterday: 90 °F (at 12:00 PM)
Minimum temperature yesterday: 79 °F (at 3:00 AM)
Average temperature yesterday: 83 °F

Past Weeks' High & Low Weather Summary

 TemperatureHumidityPressure
High95 °F (Jun 17, 3:00 PM)100% (Jun 17, 9:00 PM)29.95 "Hg (Jun 17, 9:00 PM)
Low75 °F (Jun 17, 10:00 PM)44% (Jun 28, 2:00 PM)29.68 "Hg (Jun 17, 3:00 PM)
Average82 °F83%29.83 "Hg
* Reported Jun 17 8:00 AM — Jul 2 8:00 AM, Mabalacat, Weather by CustomWeather, © 2015

Note: Actual official high and low records may vary slightly from our data, if they occured in-between our weather recording intervals... More about our weather records

Advertising

Mabalacat weather history for previous 24 hours

 ConditionsComfort  
Time TempWeatherWind HumidityBarometerVisibility
8:00 AM
Thu, Jul 2
84 °FPartly sunny.2 mph79%29.77 "Hg5 mi
7:00 AM79 °FPartly sunny.3 mph94%29.77 "HgN/A
6:00 AM77 °FPartly sunny.2 mph94%29.77 "HgN/A
5:00 AM79 °FPassing clouds.3 mph89%29.77 "HgN/A
4:00 AM79 °FPassing clouds.2 mph94%29.77 "HgN/A
3:00 AM79 °FPassing clouds.3 mph94%29.77 "HgN/A
2:00 AM79 °FPassing clouds.3 mph89%29.77 "HgN/A
1:00 AM79 °FPassing clouds.5 mph89%29.80 "HgN/A
12:00 AM79 °FPassing clouds.1 mph89%29.80 "HgN/A
11:00 PM
Wed, Jul 1
79 °FPassing clouds.2 mph89%29.83 "HgN/A
10:00 PM79 °FPassing clouds.N/A89%29.80 "HgN/A
9:00 PM81 °FPassing clouds.3 mph89%29.80 "HgN/A
8:00 PM81 °FPassing clouds.3 mph89%29.77 "HgN/A
7:00 PM82 °FPassing clouds.3 mph84%29.77 "HgN/A
6:00 PM81 °FPartly sunny.5 mph89%29.74 "HgN/A
5:00 PM82 °FScattered clouds.5 mph79%29.74 "HgN/A
4:00 PM84 °FScattered clouds.3 mph70%29.71 "HgN/A
3:00 PM81 °FRain showers. Broken clouds.15 mph84%29.71 "HgN/A
2:00 PM88 °FSprinkles. More clouds than sun.7 mph75%29.74 "Hg5 mi
1:00 PM90 °FBroken clouds.5 mph63%29.77 "Hg5 mi
12:00 PM90 °FBroken clouds.5 mph63%29.77 "Hg5 mi
11:00 AM88 °FBroken clouds.3 mph70%29.77 "Hg5 mi
10:00 AM86 °FBroken clouds.2 mph70%29.77 "Hg5 mi
9:00 AM86 °FBroken clouds.5 mph75%29.80 "Hg5 mi
Weather by CustomWeather, © 2015

See weather overviewHow to use our weather pages